Goodland, KS

10:12 AM MDT on July 22, 2017 (GMT -0600)
Renner-Goodland Municipal

Weather History for KGLD - May, 2014

Change the Weather History Date:

Thursday, May 22, 2014

  Actual Average Record
Temperature  
Mean Temperature 66 °F 61 °F  
Max Temperature 78 °F 75 °F 97 °F (1939)
Min Temperature 53 °F 48 °F 30 °F (1931)
Degree Days  
Heating Degree Days 0 5  
Month to date heating degree days 203 175  
Since 1 July heating degree days 5952 5830  
Cooling Degree Days 1 2  
Month to date cooling degree days 9 21  
Year to date cooling degree days 14 25  
Growing Degree Days 16 (Base 50)    
Moisture  
Dew Point 55 °F    
Average Humidity 73    
Maximum Humidity 100    
Minimum Humidity 45    
Precipitation  
Precipitation 0.88 in 0.10 in 1.90 in (1973)
Month to date precipitation 1.09 1.93  
Year to date precipitation 2.88 5.46  
Snow  
Snow 0.00 in 0.00 in - ()
Month to date snowfall T 0.5  
Since 1 July snowfall 29.1 35.5  
Snow Depth 0.00 in    
Sea Level Pressure  
Sea Level Pressure 30.10 in    
Wind  
Wind Speed 11 mph (East)    
Max Wind Speed 31 mph    
Max Gust Speed 38 mph    
Visibility 6 miles    
Events Fog , Rain , Thunderstorm    
T = Trace of Precipitation, MM = Missing Value Source: NWS Daily Summary

Daily Weather History Graph

Daily Weather History Graph

Search for Another Location

Airport or City:

Trip Planner

Search our weather history database for the weather conditions in past years. The results will help you decide how hot, cold, wet, or windy it might be!

Date:

Astronomy

May. 22, 2014 Rise Set
Actual Time 5:27 AM MDT 7:59 PM MDT
Civil Twilight 4:56 AM MDT 8:30 PM MDT
Nautical Twilight 4:18 AM MDT 9:09 PM MDT
Astronomical Twilight 3:35 AM MDT 9:52 PM MDT
Moon 1:45 AM MDT 1:51 PM MDT
Length of Visible Light 15h 34m
Length of Day
14h 32m
Last Quarter, 37% of the Moon is Illuminated
May 22
Last Quarter
May 28
New
Jun 5
First Quarter
Jun 12
Full
Jun 19
Last Quarter

Hourly Weather History & Observations

Time (MDT) Temp. Dew Point Humidity Pressure Visibility Wind Dir Wind Speed Gust Speed Precip Events Conditions
12:53 AM 55.9 °F 55.0 °F 97% 30.00 in 9.0 mi East 8.1 mph - N/A   Clear
1:35 AM 55.9 °F 55.0 °F 97% 30.11 in 6.0 mi ESE 8.1 mph - N/A   Scattered Clouds
1:46 AM 55.0 °F 55.0 °F 100% 30.10 in 5.0 mi East 8.1 mph - N/A   Mostly Cloudy
1:53 AM 55.0 °F 55.0 °F 100% 30.00 in 5.0 mi East 6.9 mph - N/A   Mostly Cloudy
2:53 AM 55.0 °F 54.0 °F 96% 29.99 in 7.0 mi East 10.4 mph - N/A   Mostly Cloudy
3:34 AM 54.0 °F 54.0 °F 100% 30.10 in 5.0 mi ENE 8.1 mph - N/A   Overcast
3:53 AM 54.0 °F 54.0 °F 100% 30.00 in 4.0 mi ENE 6.9 mph - N/A   Overcast
4:03 AM 54.0 °F 54.0 °F 100% 30.09 in 1.8 mi NE 5.8 mph - N/A   Overcast
4:22 AM 54.0 °F 54.0 °F 100% 30.10 in 0.5 mi North 6.9 mph - N/A Fog Fog
4:35 AM 54.0 °F 54.0 °F 100% 30.12 in 0.2 mi North 6.9 mph - N/A Fog Fog
4:53 AM 54.0 °F 54.0 °F 100% 30.03 in 0.2 mi NNW 10.4 mph - N/A Fog Fog
5:07 AM 53.1 °F 53.1 °F 100% 30.13 in 0.5 mi NNW 13.8 mph - N/A Fog Fog
5:27 AM 53.1 °F 53.1 °F 100% 30.14 in 1.5 mi NNW 15.0 mph - N/A   Overcast
5:53 AM 53.1 °F 53.1 °F 100% 30.07 in 5.0 mi North 12.7 mph - N/A   Overcast
6:14 AM 53.1 °F 53.1 °F 100% 30.17 in 2.5 mi North 13.8 mph - N/A   Overcast
6:34 AM 53.1 °F 53.1 °F 100% 30.18 in 1.8 mi NNE 11.5 mph - N/A   Overcast
6:53 AM 53.1 °F 53.1 °F 100% 30.11 in 1.0 mi NNE 9.2 mph - N/A   Overcast
7:13 AM 54.0 °F 54.0 °F 100% 30.19 in 0.8 mi East 9.2 mph - N/A   Overcast
7:23 AM 54.0 °F 54.0 °F 100% 30.19 in 1.2 mi ENE 6.9 mph - N/A   Overcast
7:37 AM 54.0 °F 54.0 °F 100% 30.19 in 3.0 mi East 8.1 mph - N/A   Overcast
7:45 AM 54.0 °F 54.0 °F 100% 30.18 in 2.0 mi ESE 6.9 mph - N/A   Overcast
7:53 AM 55.0 °F 54.0 °F 96% 30.10 in 2.5 mi East 6.9 mph - N/A   Overcast
8:01 AM 55.0 °F 55.0 °F 100% 30.18 in 3.0 mi SE 8.1 mph - N/A   Overcast
8:53 AM 55.9 °F 54.0 °F 93% 30.13 in 7.0 mi SE 6.9 mph - N/A   Overcast
9:53 AM 60.1 °F 55.0 °F 83% 30.12 in 10.0 mi SE 8.1 mph - N/A   Overcast
10:33 AM 62.1 °F 55.9 °F 80% 30.18 in 10.0 mi Calm Calm - N/A   Scattered Clouds
10:53 AM 64.9 °F 55.9 °F 73% 30.10 in 10.0 mi ESE 5.8 mph - N/A   Clear
11:53 AM 71.1 °F 55.9 °F 59% 30.08 in 10.0 mi SE 8.1 mph - N/A   Clear
12:53 PM 73.0 °F 57.0 °F 57% 30.07 in 10.0 mi South 8.1 mph - N/A   Scattered Clouds
1:53 PM 75.9 °F 57.9 °F 54% 30.06 in 10.0 mi SE 11.5 mph 17.3 mph N/A   Mostly Cloudy
2:53 PM 78.1 °F 55.9 °F 46% 30.01 in 10.0 mi ESE 11.5 mph - N/A   Scattered Clouds
3:53 PM 77.0 °F 57.9 °F 52% 30.02 in 10.0 mi ESE 16.1 mph 20.7 mph N/A   Mostly Cloudy
4:53 PM 75.0 °F 57.0 °F 53% 30.01 in 10.0 mi ESE 18.4 mph 21.9 mph N/A   Clear
5:53 PM 73.9 °F 57.0 °F 55% 29.99 in 10.0 mi East 17.3 mph - N/A   Clear
6:53 PM 71.1 °F 57.9 °F 63% 30.02 in 10.0 mi East 13.8 mph - N/A   Clear
7:53 PM 69.1 °F 60.1 °F 73% 30.05 in 10.0 mi ESE 10.4 mph - N/A   Clear
8:53 PM 66.9 °F 60.1 °F 79% 30.06 in 10.0 mi ESE 12.7 mph - N/A   Scattered Clouds
9:07 PM 66.9 °F 60.1 °F 79% 30.15 in 10.0 mi ESE 13.8 mph - N/A Thunderstorm Mostly Cloudy
9:29 PM 64.0 °F 54.0 °F 70% 30.18 in 10.0 mi WSW 17.3 mph 25.3 mph N/A Thunderstorm Thunderstorm
9:49 PM 59.0 °F 53.6 °F 82% 30.18 in 10.0 mi WSW 28.8 mph 35.7 mph 0.00 in Rain , Thunderstorm Light Thunderstorms and Rain
9:53 PM 57.9 °F 55.0 °F 90% 30.11 in 5.0 mi WSW 32.2 mph 38.0 mph 0.00 in Rain , Thunderstorm Light Thunderstorms and Rain
9:58 PM 57.0 °F 55.0 °F 93% 30.19 in 1.8 mi WSW 23.0 mph 38.0 mph 0.08 in Rain , Thunderstorm Heavy Thunderstorms and Rain
10:16 PM 57.0 °F 55.0 °F 93% 30.21 in 2.5 mi WSW 5.8 mph 24.2 mph 0.45 in Rain , Thunderstorm Heavy Thunderstorms and Rain
10:38 PM 57.0 °F 55.9 °F 96% 30.21 in 4.0 mi WNW 6.9 mph - 0.62 in Rain , Thunderstorm Thunderstorms and Rain
10:53 PM 57.0 °F 55.9 °F 96% 30.14 in 5.0 mi West 8.1 mph - 0.65 in Rain , Thunderstorm Light Thunderstorms and Rain
11:49 PM 57.2 °F 55.4 °F 94% 30.16 in 8.0 mi North 11.5 mph - 0.16 in Rain Light Rain
11:53 PM 57.9 °F 55.9 °F 93% 30.07 in 9.0 mi North 9.2 mph - 0.16 in Rain Light Rain